DW2047 Weather Reports


time (UTC)temp
F
wind
direction
speed
knots
gust
knots
rain 1hr
in
rain 24hr
in
rain mn
in
humidity
%
barometer
mb
20260502224026 77 71 0.9 0.0 0.00 0.00 0.00 41 1020.5
20260502223606 77 71 0.9 0.0 0.00 0.00 0.00 41 1020.6
20260502223009 77 71 0.9 0.0 0.00 0.00 0.00 40 1020.7
20260502222547 77 69 0.9 0.0 0.00 0.00 0.00 38 1020.7
20260502222014 77 62 0.9 0.0 0.00 0.00 0.00 40 1020.8
20260502221519 77 62 1.7 0.0 0.00 0.00 0.00 40 1020.8
20260502221058 77 75 1.7 0.0 0.00 0.00 0.00 42 1020.8
20260502220528 76 64 0.9 0.0 0.00 0.00 0.00 41 1020.8
20260502220031 76 75 0.9 0.0 0.00 0.00 0.00 41 1020.8
20260502215505 76 76 1.7 0.0 0.00 0.00 0.00 42 1020.8
20260502215038 76 54 0.9 0.0 0.00 0.00 0.00 43 1020.8
20260502214552 77 36 0.9 0.0 0.00 0.00 0.00 43 1020.9
20260502214025 77 344 0.9 0.0 0.00 0.00 0.00 43 1021.0
20260502213502 77 63 1.7 0.0 0.00 0.00 0.00 43 1021.1
20260502213057 78 42 1.7 0.0 0.00 0.00 0.00 44 1021.1
20260502212532 77 74 1.7 0.0 0.00 0.00 0.00 44 1021.2
20260502212003 77 70 1.7 0.0 0.00 0.00 0.00 45 1021.3
20260502211558 77 300 1.7 0.0 0.00 0.00 0.00 42 1021.3
20260502211026 77 51 1.7 0.0 0.00 0.00 0.00 43 1021.5
20260502210605 77 79 1.7 0.0 0.00 0.00 0.00 45 1021.5
20260502210054 77 73 1.7 0.0 0.00 0.00 0.00 43 1021.6
20260502205523 77 65 1.7 0.0 0.00 0.00 0.00 42 1021.8
20260502205102 77 337 1.7 0.0 0.00 0.00 0.00 43 1021.8
20260502204617 77 84 1.7 0.0 0.00 0.00 0.00 42 1021.8
20260502204034 76 65 1.7 0.0 0.00 0.00 0.00 45 1022.0
20260502203507 76 331 1.7 0.0 0.00 0.00 0.00 43 1022.0
20260502203018 76 340 1.7 0.0 0.00 0.00 0.00 43 1022.0
20260502202551 75 161 1.7 0.0 0.00 0.00 0.00 45 1022.0
20260502202022 75 344 1.7 0.0 0.00 0.00 0.00 44 1022.0
20260502201525 76 340 1.7 0.0 0.00 0.00 0.00 41 1022.1
20260502201105 77 67 1.7 0.0 0.00 0.00 0.00 41 1022.1
20260502200534 76 28 1.7 0.0 0.00 0.00 0.00 44 1022.1
20260502200044 76 128 1.7 0.0 0.00 0.00 0.00 45 1022.1
20260502195517 75 81 2.6 0.0 0.00 0.00 0.00 43 1022.0
20260502195050 74 360 2.6 0.0 0.00 0.00 0.00 43 1022.2
20260502194538 74 81 1.7 0.0 0.00 0.00 0.00 43 1022.1
20260502194014 74 315 1.7 0.0 0.00 0.00 0.00 43 1022.2
20260502193547 75 355 1.7 0.0 0.00 0.00 0.00 46 1022.3
20260502193036 75 355 2.6 0.0 0.00 0.00 0.00 44 1022.3
20260502192507 75 31 1.7 0.0 0.00 0.00 0.00 44 1022.3
20260502192043 74 77 1.7 0.0 0.00 0.00 0.00 48 1022.3
20260502191532 74 346 1.7 0.0 0.00 0.00 0.00 50 1022.4
20260502191005 73 94 0.9 0.0 0.00 0.00 0.00 51 1022.3
20260502190543 73 30 1.7 0.0 0.00 0.00 0.00 48 1022.3
20260502190036 73 355 0.9 0.0 0.00 0.00 0.00 51 1022.4
20260502185511 73 351 0.9 0.0 0.00 0.00 0.00 50 1022.5
20260502185047 73 315 1.7 0.0 0.00 0.00 0.00 47 1022.5
20260502184537 73 360 1.7 0.0 0.00 0.00 0.00 51 1022.5
20260502184009 73 92 1.7 0.0 0.00 0.00 0.00 51 1022.6
20260502183549 73 360 2.6 0.0 0.00 0.00 0.00 48 1022.6
20260502183055 73 90 1.7 0.0 0.00 0.00 0.00 50 1022.8
20260502182531 72 81 1.7 0.0 0.00 0.00 0.00 54 1022.8
20260502182003 72 349 1.7 0.0 0.00 0.00 0.00 54 1023.0
20260502181505 71 52 1.7 0.0 0.00 0.00 0.00 53 1023.0
20260502181044 71 355 1.7 0.0 0.00 0.00 0.00 54 1023.3
20260502180518 70 344 1.7 0.0 0.00 0.00 0.00 55 1023.4
20260502164050 67 360 1.7 0.0 0.00 0.00 0.00 65 1024.3
20260502163520 66 76 1.7 0.0 0.00 0.00 0.00 64 1024.3
20260502163026 66 340 2.6 0.0 0.00 0.00 0.00 64 1024.3
20260502162605 66 319 2.6 0.0 0.00 0.00 0.00 63 1024.3
20260502162036 66 360 1.7 0.0 0.00 0.00 0.00 65 1024.4
20260502161536 66 348 1.7 0.0 0.00 0.00 0.00 64 1024.5
20260502161010 66 291 1.7 0.0 0.00 0.00 0.00 63 1024.5
20260502160547 66 74 0.9 0.0 0.00 0.00 0.00 65 1024.5
20260502152100 62 313 0.9 0.0 0.00 0.00 0.00 70 1024.3
20260502151605 62 313 0.9 0.0 0.00 0.00 0.00 70 1024.3
20260502151034 61 273 1.7 0.0 0.00 0.00 0.00 72 1024.3
20260502150507 61 273 1.7 0.0 0.00 0.00 0.00 74 1024.3
20260502150112 61 273 1.7 0.0 0.00 0.00 0.00 76 1024.3
20260502130503 50 18 1.7 0.0 0.00 0.00 0.00 93 1023.2
20260502130108 50 18 1.7 0.0 0.00 0.00 0.00 93 1023.2
20260502123519 48 18 0.0 0.0 0.00 0.00 0.00 93 1022.9
20260502123027 48 18 0.0 0.0 0.00 0.00 0.00 93 1022.8
20260502122601 48 18 0.0 0.0 0.00 0.00 0.00 93 1022.7
20260502122033 48 18 0.0 0.0 0.00 0.00 0.00 93 1022.7
20260502121538 47 18 0.0 0.0 0.00 0.00 0.00 93 1022.6
20260502121013 47 18 0.0 0.0 0.00 0.00 0.00 93 1022.5
20260502120550 47 18 0.0 0.0 0.00 0.00 0.00 93 1022.4
20260502115522 47 18 0.0 0.0 0.00 0.00 0.00 93 1022.1
20260502115101 47 18 0.0 0.0 0.00 0.00 0.00 93 1022.0
20260502114604 48 18 0.0 0.0 0.00 0.00 0.00 93 1021.8
20260502114032 48 18 0.0 0.0 0.00 0.00 0.00 93 1021.7
20260502113505 48 18 0.0 0.0 0.00 0.00 0.00 93 1021.7
20260502113056 48 18 0.9 0.0 0.00 0.00 0.00 93 1021.7
20260502112532 48 18 0.0 0.0 0.00 0.00 0.00 93 1021.7
20260502112001 48 18 0.0 0.0 0.00 0.00 0.00 93 1021.6
20260502111556 48 18 0.0 0.0 0.00 0.00 0.00 93 1021.6
20260502111030 48 18 0.0 0.0 0.00 0.00 0.00 93 1021.5
20260502110506 48 18 0.0 0.0 0.00 0.00 0.00 93 1021.3
20260502110058 48 18 0.9 0.0 0.00 0.00 0.00 93 1021.2
20260502105534 48 18 0.0 0.0 0.00 0.00 0.00 93 1021.1
20260502105006 48 18 0.0 0.0 0.00 0.00 0.00 93 1020.9
20260502104559 48 18 0.0 0.0 0.00 0.00 0.00 93 1020.8
20260502104033 48 18 0.0 0.0 0.00 0.00 0.00 93 1020.5
20260502103501 48 18 0.0 0.0 0.00 0.00 0.00 93 1020.4
20260502103006 48 18 0.0 0.0 0.00 0.00 0.00 93 1020.3
20260502102543 48 18 0.0 0.0 0.00 0.00 0.00 93 1020.3
20260502102015 48 18 0.0 0.0 0.00 0.00 0.00 93 1020.4
20260502101517 48 18 0.0 0.0 0.00 0.00 0.00 93 1020.4
20260502101055 48 18 0.9 0.0 0.00 0.00 0.00 93 1020.3
20260502100532 48 18 0.0 0.0 0.00 0.00 0.00 93 1020.3
20260502091511 48 18 0.9 0.0 0.00 0.00 0.00 93 1020.3
20260502091052 48 18 0.9 0.0 0.00 0.00 0.00 93 1020.3
20260502090522 49 18 0.9 0.0 0.00 0.00 0.00 93 1020.2
20260502071028 50 18 0.9 0.0 0.00 0.00 0.00 93 1019.9
20260502070604 50 18 0.9 0.0 0.00 0.00 0.00 93 1019.9
20260502070003 50 18 0.9 0.0 0.00 0.00 0.00 93 1019.9
20260502065541 50 18 0.9 0.0 0.00 0.00 0.00 93 1020.0
20260502065018 50 18 0.9 0.0 0.00 0.00 0.00 93 1020.0
20260502064520 50 18 0.9 0.0 0.00 0.00 0.00 93 1019.8
20260502064053 50 18 0.9 0.0 0.00 0.00 0.00 93 1019.8
20260502063530 50 18 0.9 0.0 0.00 0.00 0.00 93 1019.8
20260502063044 50 18 0.0 0.0 0.00 0.00 0.00 93 1019.8
20260502062509 50 18 0.0 0.0 0.00 0.00 0.00 93 1019.8
20260502062041 50 18 0.0 0.0 0.00 0.00 0.00 93 1019.8
20260502061550 51 18 0.0 0.0 0.00 0.00 0.00 93 1019.8
20260502061018 51 18 0.0 0.0 0.00 0.00 0.00 93 1019.6
20260502060554 51 18 0.0 0.0 0.00 0.00 0.00 93 1019.6
20260502060100 51 18 0.0 0.0 0.00 0.00 0.00 93 1019.6
20260502055530 51 18 0.0 0.0 0.00 0.00 0.00 93 1019.7
20260502055002 51 18 0.0 0.0 0.00 0.00 0.00 93 1019.8
20260502054601 51 18 0.9 0.0 0.00 0.00 0.00 93 1019.7
20260502054029 52 18 0.9 0.0 0.00 0.00 0.00 93 1019.9
20260502053506 52 18 0.9 0.0 0.00 0.00 0.00 93 1019.9
20260502053103 52 18 0.9 0.0 0.00 0.00 0.00 93 1019.9
20260502052525 52 18 0.9 0.0 0.00 0.00 0.00 93 1019.8
20260502052003 52 18 0.9 0.0 0.00 0.00 0.00 93 1019.8
20260502051505 52 18 0.0 0.0 0.00 0.00 0.00 93 1019.8
20260502051044 52 18 0.0 0.0 0.00 0.00 0.00 93 1019.7
20260502050520 52 18 0.0 0.0 0.00 0.00 1.07 93 1019.6
20260502050002 52 18 0.0 0.0 0.00 0.00 1.07 93 1019.5
20260502045541 52 18 0.0 0.0 0.00 0.00 1.07 93 1019.4
20260502045016 52 18 0.0 0.0 0.00 0.00 1.07 93 1019.4
20260502044613 53 18 0.0 0.0 0.00 0.00 1.07 93 1019.5
20260502044035 53 18 0.0 0.0 0.00 0.00 1.07 93 1019.5
20260502043514 53 18 0.0 0.0 0.00 0.00 1.07 93 1019.5
20260502043103 53 18 0.0 0.0 0.00 0.00 1.07 93 1019.4
20260502042534 53 18 0.0 0.0 0.00 0.00 1.07 93 1019.3
20260502042010 53 18 0.0 0.0 0.00 0.00 1.07 93 1019.3
20260502041518 54 18 0.0 0.0 0.00 0.00 1.07 93 1019.3
20260502041054 54 18 0.9 0.0 0.00 0.00 1.07 93 1019.3
20260502040523 54 18 0.9 0.0 0.00 0.00 1.07 93 1019.4
20260502040028 54 18 0.9 0.0 0.00 0.00 1.07 93 1019.3
20260502035605 54 18 0.0 0.0 0.00 0.00 1.07 93 1019.4
20260502035034 54 18 0.0 0.0 0.00 0.00 1.07 93 1019.3
20260502034540 54 18 0.9 0.0 0.00 0.00 1.07 93 1019.5
20260502034009 54 18 0.0 0.0 0.00 0.00 1.07 93 1019.4
20260502033547 54 18 0.9 0.0 0.00 0.00 1.07 93 1019.3
20260502033032 54 18 0.9 0.0 0.00 0.00 1.07 93 1019.3
20260502032506 54 18 0.9 0.0 0.00 0.00 1.07 93 1019.4
20260502032046 54 18 0.0 0.0 0.00 0.00 1.07 93 1019.4
20260502031532 54 18 0.9 0.0 0.00 0.00 1.07 93 1019.3
20260502031002 54 18 0.9 0.0 0.00 0.00 1.07 93 1019.2
20260502030543 54 18 0.9 0.0 0.00 0.00 1.07 93 1019.2
20260502030050 54 18 0.9 0.0 0.00 0.00 1.07 93 1019.2
20260502025520 54 18 0.9 0.0 0.00 0.00 1.07 93 1019.1
20260502025103 54 18 0.9 0.0 0.00 0.00 1.07 93 1019.0
20260502024509 54 18 0.0 0.0 0.00 0.00 1.07 93 1018.9
20260502024045 54 18 0.0 0.0 0.00 0.00 1.07 93 1018.8
20260502023515 54 18 0.0 0.0 0.00 0.00 1.07 93 1018.8
20260502023024 54 18 0.0 0.0 0.00 0.00 1.07 93 1018.8
20260502022556 54 18 0.9 0.0 0.00 0.00 1.07 93 1018.7
20260502022029 54 18 0.9 0.0 0.00 0.00 1.07 93 1018.7
20260502021533 54 18 0.0 0.0 0.00 0.00 1.07 93 1018.5
20260502021006 54 47 0.0 0.0 0.00 0.00 1.07 93 1018.4
20260502020542 54 71 0.0 0.0 0.00 0.00 1.07 93 1018.2
20260502020048 54 71 0.0 0.0 0.00 0.00 1.07 93 1018.0
20260502015522 54 71 0.0 0.0 0.00 0.00 1.07 93 1017.8
20260502015058 54 71 0.0 0.0 0.00 0.00 1.07 93 1017.8
20260502014544 54 71 0.0 0.0 0.00 0.00 1.07 93 1017.7
20260502014021 54 71 0.0 0.0 0.00 0.00 1.07 93 1017.6
20260502013556 54 71 0.0 0.0 0.00 0.00 1.07 93 1017.6
20260502013046 54 71 0.0 0.0 0.00 0.00 1.07 93 1017.5
20260502012521 54 71 0.9 0.0 0.00 0.00 1.07 93 1017.5
20260502012058 54 72 0.9 0.0 0.00 0.00 1.07 93 1017.5
20260502011547 54 70 0.9 0.0 0.00 0.00 1.07 93 1017.3
20260502011020 54 71 0.9 0.0 0.00 0.00 1.07 93 1017.3
20260502010601 54 71 0.9 0.0 0.00 0.00 1.07 93 1017.2
20260502010051 54 46 0.9 0.0 0.00 0.00 1.07 93 1017.2
20260502005518 54 351 0.9 0.0 0.00 0.00 1.07 93 1017.0
20260502005100 54 24 0.9 0.0 0.00 0.00 1.07 93 1016.9
20260502004604 54 24 0.9 0.0 0.00 0.00 1.07 93 1016.8
20260502004031 54 351 0.9 0.0 0.00 0.00 1.07 93 1016.6
20260502003606 54 335 0.9 0.0 0.00 0.00 1.07 93 1016.6
20260502003056 54 15 0.9 0.0 0.00 0.00 1.07 93 1016.6
20260502002529 54 55 0.9 0.0 0.00 0.00 1.07 93 1016.5
20260502002002 54 61 0.9 0.0 0.00 0.00 1.07 93 1016.5
20260502001508 54 269 1.7 0.0 0.00 0.00 1.07 93 1016.3
20260502001040 54 82 1.7 0.0 0.00 0.00 1.07 93 1016.2
20260502000512 55 63 0.9 0.0 0.00 0.00 1.07 93 1016.2
20260502000017 54 69 1.7 0.0 0.00 0.00 1.07 93 1016.2
20260501235553 54 71 0.9 0.0 0.00 0.00 1.07 93 1016.1
20260501235026 54 323 0.9 0.0 0.00 0.00 1.07 93 1016.2
20260501234535 54 323 1.7 0.0 0.00 0.00 1.07 93 1016.2
20260501234104 54 323 1.7 0.0 0.00 0.00 1.07 93 1016.2
20260501233534 54 360 1.7 0.0 0.00 0.00 1.07 93 1016.2
20260501233044 54 21 1.7 0.0 0.00 0.00 1.07 93 1016.3
20260501232527 54 25 1.7 0.0 0.00 0.00 1.07 93 1016.2
20260501232105 54 338 2.6 0.0 0.00 0.00 1.07 93 1015.9
20260501231502 54 5 2.6 0.0 0.00 0.00 1.07 93 1015.6
20260501231040 54 326 1.7 0.0 0.00 0.00 1.07 93 1015.5
20260501230514 54 349 2.6 0.0 0.00 0.00 1.07 93 1015.5
20260501230016 54 38 1.7 0.0 0.00 0.00 1.06 93 1015.6
20260501225555 54 314 2.6 0.0 0.00 0.00 1.06 93 1015.5
20260501225033 54 360 2.6 0.0 0.00 0.00 1.06 93 1015.6
20260501224544 54 360 1.7 0.0 0.00 0.00 1.06 93 1015.4